Regional Weather Roundup
Issued by NWS

Home | Current Version | Previous Version | Text Only | Print | Product List | Glossary Off
Versions: 1 2 3 4 5 6 7 8 9 10 11 12 13 14 15 16 17 18 19 20 21 22 23 24 25 26 27 28 29 30 31 32 33 34 35 36 37 38 39 40 41 42 43 44 45 46 47 48 49 50

000
ASUS43 KFSD 291610
RWRSD

WEATHER ROUNDUP FOR SOUTH DAKOTA
NATIONAL WEATHER SERVICE SIOUX FALLS SD
1100 AM CDT WED MAR 29 2017

NOTE: "FAIR" INDICATES FEW OR NO CLOUDS BELOW 12,000 FEET WITH NO
SIGNIFICANT WEATHER AND/OR OBSTRUCTIONS TO VISIBILITY.


SDZ001>005-009-010-012>017-291700-
NORTHWEST AND NORTH CENTRAL SOUTH DAKOTA

CITY           SKY/WX    TMP DP  RH WIND       PRES   REMARKS
BUFFALO          N/A     44  42  93 S6        30.03S
FAITH            N/A     48  45  89 MISG      30.09F
MOBRIDGE       CLOUDY    52  42  69 VRB5      30.10S
$$

SDZ012>016-024>037-041>051-057-063-072>074-291700-
SOUTHWEST AND SOUTH CENTRAL SOUTH DAKOTA

CITY           SKY/WX    TMP DP  RH WIND       PRES   REMARKS
RAPID CTY ARPT PTSUNNY   46  41  82 E5        30.09F
PIERRE         MOSUNNY   53  43  68 N8        30.11F
CUSTER         SUNNY     43  34  70 NW3       30.08F
ELLSWORTH AFB  PTSUNNY   45  45 100 CALM      30.09
PHILIP         CLOUDY    46  44  93 SE3       30.12S
PINE RIDGE     CLOUDY    44  40  85 CALM      30.11S
SPEARFISH      PTSUNNY   48  37  66 NW8       30.10S
WINNER         CLOUDY    51  46  83 N10       30.12S
$$

SDZ004>011-016>023-039-040-291700-
NORTHEAST SOUTH DAKOTA

CITY           SKY/WX    TMP DP  RH WIND       PRES   REMARKS
ABERDEEN       CLOUDY    51  36  56 CALM      30.15F
WATERTOWN      CLOUDY    53  37  54 SE9       30.15F
BROOKINGS      CLOUDY    51  38  60 SE16      30.15S
SISSETON         N/A     49  41  74 S6        30.16S
$$

SDZ017-020-022-023-036>040-048>070-291700-
SOUTHEAST SOUTH DAKOTA

CITY           SKY/WX    TMP DP  RH WIND       PRES   REMARKS
SIOUX FALLS    CLOUDY    49  40  71 E16G23    30.14F
HURON          CLOUDY    56  39  53 MISG      30.14S
CHAMBERLAIN    MOSUNNY   55  43  62 N6        30.12S
MITCHELL       MOSUNNY   52  41  66 SE14      30.14S
YANKTON        CLOUDY    46  41  81 NE15G22   30.11S
$$

ABBREVIATIONS USED IN REMARKS
   TC - TEMPERATURE IN CELSIUS
  WCI - WIND CHILL INDEX
   HX - HEAT INDEX
  VSB - VISIBILITY





USA.gov is the U.S. government's official web portal to all federal, state and local government web resources and services.